weather.gov     
National Weather Service

Terminal Aerodrome Forecast
NWS Homepage
This page is being discontinued on March 12, 2014.
The same data is available at this site. Please update your bookmarks.
Thank you, and we apologize for the inconvenience.
Please send an email to SR-SRH.Webmaster@noaa.gov with any concerns.


Current Version
Previous Version:    01  02  03  04  05  06  07  08  09  10  11  12  13  14  15  16  17  18  19  20  21  22  23  24  25  26  27  28  29  30  
   31  32  33  34  35  36  37  38  39  40  41  42  43  44  45  46  47  48  49  
[Printable]
533
FTUS41 KCAR 011800 AAA
TAFPQI
TAF AMD
KPQI 011841Z 0119/0218 05004KT P6SM VCSH BKN018
      TEMPO 0119/0121 SCT018 BKN035
     FM020200 11004KT P6SM BKN015
     FM020400 12004KT P6SM BKN008
     FM020900 14005KT 6SM BR BKN003
     FM021100 15006KT 4SM BR BKN003
     FM021200 16006KT 6SM BR SCT003 BKN006
     FM021500 16006KT P6SM OVC025
      AMD LTD TO CLD VIS AND WIND=


U.S. Dept. of Commerce
NOAA National Weather Service
1325 East West Highway
Silver Spring, MD 20910
E-mail: w-nws.webmaster@noaa.gov
Page last modified: May 16, 2007
NATIONAL WEATHER SERVICE: for Safety, for Work, for Fun - FOR LIFE